This demonstration page uses our WeatherBlox Daily Observations layout. Learn more.

Left ArrowRight Arrow

38.88101, -77.10428

Hourly Observations for December 17, 2019

Temp ( °F °C ) Dew Point ( °F °C ) Humidity (%) Winds ( mph kmh ) Pressure ( in mb ) Visibility ( mi km ) Precip ( " mm )
12:22 am 00:22 Cloudy with Light Rain 37 2.8 36 2.2 96 96 NNW 10 17 30.10 1019 3 4 0.02 0.51
12:31 am 00:31 Cloudy with Light Rain 37 2.8 36 2.2 96 96 NNW 10 17 30.09 1019 3 5 0.02 0.51
12:52 am 00:52 Cloudy with Light Rain 37 2.8 35 1.7 93 93 NNW 10 17 30.07 1018 3 5 0.04 1.02
1:02 am 01:02 Cloudy with Light Rain 37 2.8 35 1.7 93 93 N 9 15 30.06 1018 4 6 0.01 0.25
1:10 am 01:10 Cloudy with Light Rain 37 2.8 35 1.7 93 93 N 10 17 30.05 1018 3 5 0.02 0.51
1:18 am 01:18 Cloudy with Light Rain 37 2.8 35 1.7 93 93 N 12 19 30.05 1018 4 6 0.02 0.51
1:24 am 01:24 Cloudy with Drizzle 37 2.8 35 1.7 93 93 N 10 17 30.05 1018 5 8 0.02 0.51
1:32 am 01:32 Cloudy with Light Rain 37 2.8 35 1.7 93 93 N 9 15 30.03 1017 3 4 0.03 0.76
1:44 am 01:44 Cloudy with Light Rain 37 2.8 35 1.7 93 93 NNE 8 13 30.04 1017 4 6 0.03 0.76
1:48 am 01:48 Cloudy with Drizzle 37 3 36 2 93 93 NNE 7 11 30.03 1017 5 8 0.03 0.76
1:52 am 01:52 Cloudy with Drizzle 37 2.8 35 1.7 93 93 NNE 8 13 30.01 1016 5 8 0.03 0.76
2:05 am 02:05 Cloudy with Drizzle 37 2.8 35 1.7 93 93 NNE 8 13 30.02 1017 10 16 0.00 0.00
2:35 am 02:35 Cloudy 37 2.8 35 1.7 93 93 NNE 7 11 30.00 1016 10 16 0.00 0.00
2:52 am 02:52 Cloudy 37 2.8 35 1.7 93 93 NE 6 9 29.99 1016 10 16 0.00 0.00
3:46 am 03:46 Cloudy with Light Rain 37 3 36 2 93 93 NE 7 11 29.95 1014 10 16 0.00 0.00
3:52 am 03:52 Cloudy with Light Rain 37 2.8 35 1.7 93 93 NNE 7 11 29.95 1014 10 16 0.00 0.00
4:01 am 04:01 Cloudy with Light Rain 37 2.8 35 1.7 93 93 E 7 11 29.93 1014 10 16 0.00 0.00
4:44 am 04:44 Cloudy with Light Rain 37 2.8 36 2.2 96 96 N N/A 29.92 1013 10 16 0.01 0.25
4:52 am 04:52 Cloudy 37 2.8 35 1.7 93 93 SSE 3 6 29.90 1013 10 16 0.01 0.25
5:42 am 05:42 Cloudy with Drizzle 37 2.8 36 2.2 96 96 N N/A 29.89 1012 5 8 0.00 0.00
5:52 am 05:52 Cloudy with Drizzle 37 2.8 36 2.2 96 96 N N/A 29.89 1012 3 5 0.00 0.00
6:01 am 06:01 Cloudy with Drizzle 37 2.8 36 2.2 96 96 WSW 3 6 29.90 1013 3 4 0.00 0.00
6:52 am 06:52 Cloudy with Mist and Fog 37 2.8 37 2.8 100 100 N N/A 29.85 1011 3 4 0.00 0.00
7:21 am 07:21 Cloudy with Mist and Fog 37 2.8 36 2.2 96 96 SSW 7 11 29.85 1011 2 3 0.00 0.00
7:52 am 07:52 Cloudy with Mist and Fog 37 2.8 37 2.8 100 100 SSW 6 9 29.84 1011 3 4 0.00 0.00
7:59 am 07:59 Cloudy with Mist and Fog 37 2.8 37 2.8 100 100 S 3 6 29.83 1010 3 5 N/A
8:52 am 08:52 Cloudy with Mist and Fog 38 3.3 37 2.8 97 97 S 6 9 29.80 1009 3 5 N/A
9:01 am 09:01 Cloudy with Mist and Fog 38 3.3 37 2.8 97 97 S 6 9 29.80 1009 3 5 N/A
9:52 am 09:52 Cloudy with Mist and Fog 39 3.9 38 3.3 96 96 S 7 11 29.78 1008 4 6 N/A
10:23 am 10:23 Cloudy with Mist and Fog 39 3.9 38 3.3 96 96 SSE 5 7 29.78 1009 3 5 N/A
10:52 am 10:52 Cloudy with Mist and Fog 39 3.9 39 3.9 100 100 S 5 7 29.75 1008 3 4 N/A
11:12 am 11:12 Cloudy with Mist and Fog 39 3.9 39 3.9 100 100 SSE 3 6 29.75 1008 2 2 N/A
11:25 am 11:25 Mostly Cloudy with Mist and Fog 40 4.4 39 3.9 97 97 N N/A 29.72 1007 1 1 N/A
11:27 am 11:27 Mostly Cloudy with Fog 40 4.4 39 3.9 97 97 WSW 3 6 29.72 1007 1 1 N/A
11:52 am 11:52 Cloudy with Fog 40 4.4 40 4.4 100 100 S 5 7 29.70 1006 1 1 N/A
12:33 pm 12:33 Mostly Cloudy with Fog 40 4.4 39 3.9 97 97 N N/A 29.69 1005 0 0 N/A
12:50 pm 12:50 Mostly Cloudy with Drizzle 39 4 39 4 100 100 N N/A 29.68 1005 0 0 0.00 0.00
12:52 pm 12:52 Mostly Cloudy with Drizzle 40 4.4 40 4.4 100 100 N N/A 29.68 1005 0 0 0.00 0.00
1:43 pm 13:43 Cloudy with Drizzle 41 5 40 4.4 96 96 NNW 12 19 29.67 1005 1 2 0.00 0.00
1:52 pm 13:52 Cloudy with Drizzle 41 5 40 4.4 96 96 NNW 12 19 29.67 1005 1 2 0.00 0.00
2:23 pm 14:23 Cloudy with Drizzle 40 4.4 40 4.4 100 100 VRB 7 11 29.68 1005 2 3 0.00 0.00
2:35 pm 14:35 Cloudy with Light Rain 40 4.4 39 3.9 97 97 W 7 11 29.70 1006 3 5 0.00 0.00
2:52 pm 14:52 Cloudy 40 4.4 39 3.9 97 97 NW 9 15 29.71 1006 10 16 0.00 0.00
3:15 pm 15:15 Cloudy 40 4.4 39 3.9 97 97 NNW 13 20 29.72 1007 10 16 N/A
3:30 pm 15:30 Cloudy 41 5 39 3.9 93 93 NNW 9 15 29.73 1007 10 16 N/A
3:47 pm 15:47 Cloudy with Light Rain 43 6 39 4 87 87 NNW 14 22 29.73 1007 10 16 0.00 0.00
3:52 pm 15:52 Cloudy with Light Rain 41 5 38 3.3 89 89 N 12 19 29.72 1007 10 16 0.00 0.00
4:52 pm 16:52 Cloudy with Light Rain 41 5 37 2.8 86 86 NNW 13 20 29.75 1007 10 16 0.00 0.00
5:52 pm 17:52 Cloudy with Light Rain 41 5 36 2.2 82 82 NNW 18 30 29.76 1008 9 14 0.02 0.51
6:52 pm 18:52 Cloudy with Light Rain 41 5 35 1.7 79 79 NNW 15 24 29.78 1008 9 14 0.03 0.76
7:52 pm 19:52 Cloudy 41 5 33 0.6 73 73 NNW 16 26 29.81 1010 10 16 0.00 0.00
8:52 pm 20:52 Cloudy 41 5 32 undefined 70 70 NNW 13 20 29.84 1011 10 16 N/A
9:52 pm 21:52 Cloudy 41 5 31 -0.6 67 67 NNW 16 26 29.86 1011 10 16 N/A
10:52 pm 22:52 Cloudy 40 4.4 30 -1.1 68 68 NW 18 30 29.88 1012 10 16 N/A
11:52 pm 23:52 Cloudy 40 4.4 29 -1.7 65 65 NW 16 26 29.90 1012 10 16 N/A

Powered by AerisWeather